軌道要素
Epoch 2010 Feb. 13.0 TT = JDT 2455240.5
T 2010 Feb. 22.70078 TT MPC
q 1.5980762 (2000.0) P Q
n 0.15351042 Peri. 41.78998 -0.99858470 -0.03599183
a 3.4544385 Node 136.10009 +0.01951285 -0.93282118
e 0.5373847 Incl. 3.23718 +0.04947569 -0.35853762
P 6.42
From 4015 observations 1996 Aug. 17-2011 Aug. 3, mean residual 0".6.
Nongravitational parameters A1 = -0.04, A2 = -0.0064.
|